Regional Weather Roundup
Issued by NWS Upton, NY

Current Version | Previous Version | Graphics & Text | Print | Product List | Glossary Off
Versions: 1 2 3 4 5 6 7 8 9 10 11 12 13 14 15 16 17 18 19 20 21 22 23 24 25 26 27 28 29 30 31 32 33 34 35 36 37 38 39 40 41 42 43 44 45 46 47 48 49 50

000
ASUS41 KOKX 240208
RWROKX

REGIONAL WEATHER ROUNDUP
NATIONAL WEATHER SERVICE NEW YORK NY
900 PM EST MON JAN 23 2017

NOTE: "FAIR" INDICATES FEW OR NO CLOUDS BELOW 12,000 FEET WITH NO
SIGNIFICANT WEATHER AND/OR OBSTRUCTIONS TO VISIBILITY.

NYZ071-072-176-178-NJZ106-104-240300-
NEW YORK CITY METRO AREA

CITY           SKY/WX    TMP DP  RH WIND       PRES   REMARKS
Central Park   RAIN      36  34  92 NE17G31   29.62F FOG     WCI  26
Wall St Helipt RAIN      38  35  89 NE22G36   29.60S FOG     WCI  27
LaGuardia APRT RAIN      38  34  85 NE28G38   29.60F FOG     WCI  26
Kennedy INTL   LGT RAIN  38  35  89 NE31G38   29.58F WCI  25
Breezy Point     N/A     36 N/A N/A NE18G29     N/A  WCI  25
Newark/Liberty HVY RAIN  37  35  92 NE21G29   29.61F FOG     WCI  26
Teterboro      RAIN      37  34  89 N13       29.60F FOG     WCI  29
$$

NYZ177-179-078>081-240300-
LONG ISLAND NEW YORK

CITY           SKY/WX    TMP DP  RH WIND       PRES   REMARKS
Jones Beach      N/A     37 N/A N/A NE32G41     N/A  WCI  25
Matinecock PT    N/A     37 N/A N/A E37G44      N/A  WCI  24
Farmingdale    LGT RAIN  37  35  92 NE24G39   29.58F WCI  26
MacArthur/ISP  LGT RAIN  37  36  96 NE23G33   29.58F FOG     WCI  26
Shirley        RAIN      38  37  97 NE12G26   29.60F FOG     WCI  30
Westhampton    RAIN      38  36  92 NE24G36   29.61F FOG     WCI  27
Southampton    NOT AVBL
Bridgehampton  NOT AVBL
East Hampton   LGT RAIN  38  37  94 NE18G35   29.63F WCI  28
Montauk          N/A     40  39  97 NE21G33   29.64F WCI  30
$$

NYZ052-065-067-240300-
HUDSON VALLEY

CITY           SKY/WX    TMP DP  RH WIND       PRES   REMARKS
White Plains   LGT RAIN  36  32  85 NE15G21   29.60F FOG     WCI  27
Newburgh       NOT AVBL
Montgomery     FRZ RAIN  34  31  88 NE20G29   29.67F FOG     WCI  23
Poughkeepsie   RAIN      33  30  88 N12       29.71F FOG     WCI  24
Albany         LGTSLEET  33  26  75 N7        29.84F WCI  27
$$

NJZ001-105-106-008-010-013-015-019>022-104-240300-
NEW JERSEY

CITY           SKY/WX    TMP DP  RH WIND       PRES   REMARKS
Newark/Liberty HVY RAIN  37  35  92 NE21G29   29.61F FOG     WCI  26
Teterboro      RAIN      37  34  89 N13       29.60F FOG     WCI  29
Caldwell       RAIN      36  33  89 NE13G24   29.62F FOG     WCI  27
Somerville     RAIN      37  33  85 NE9G25    29.57F FOG     WCI  30
Linden         RAIN      37  34  90 NE16G23   29.60F WCI  28
Sussex         LGT RAIN  33  32  96 NE15G30   29.63F FOG     WCI  23
Andover          N/A     33  31  92 NE12G28   29.60F WCI  24
Trenton        LGT RAIN  37  35  92 NE21G33   29.52F WCI  26
Millville      CLOUDY    41  39  93 NE26G44   29.38F
Atlantic City  CLOUDY    42  38  85 NE31G47   29.40F
Wrightstown    CLOUDY    38  35  91 NE24G35   29.48F WCI  27
Toms River     LGT RAIN  39  37  92 NE29G38   29.52F WCI  27
Belmar         RAIN      38  36  92 NE25G33   29.54F WCI  27
$$

PAZ047>061-062-071-240300-
EASTERN PENNSYLVANIA

CITY           SKY/WX    TMP DP  RH WIND       PRES   REMARKS
Philadelphia   CLOUDY    39  34  82 NE26G37   29.50F WCI  28
Allentown      LGT RAIN  36  31  82 NE17G28   29.57F WCI  26
Scranton       LGT RAIN  35  32  88 NE12      29.58F FOG     WCI  27
$$

CTZ002-004>006-009-010-012-RIZ004-006-007-MAZ004-011-015-240300-
SOUTHERN NEW ENGLAND
 IN CT

CITY           SKY/WX    TMP DP  RH WIND       PRES   REMARKS
Bradley INTL   SLEET     33  31  92 N16       29.78F FOG     WCI  23
Hartford       RAIN      33  32  96 N16       29.74F FOG     WCI  23
Danbury        RAIN      34  30  85 NE13G25   29.67F FOG     WCI  25
Wtrbury/Oxford LGTSLEET  34  28  80 NE21G32   29.64F FOG     WCI  22
Bridgeport     LGT RAIN  38  33  82 NE23G31   29.65F WCI  27
Meriden        LGT RAIN  35  31  85 N15G25    29.70F FOG     WCI  25
New Haven      LGT RAIN  36  33  89 NE20G26   29.66F WCI  25
Chester        LGT SNOW  36  34  93 NE15G28   29.66F WCI  26
Groton         LGT RAIN  38  35  89 NE21G38   29.67F FOG     WCI  28
Wilimantic     RAIN      37  33  85 NE16G24   29.75R FOG     WCI  28

 IN RI

CITY           SKY/WX    TMP DP  RH WIND       PRES   REMARKS
Providence     RAIN      38  35  89 NE21G30   29.76F FOG     WCI  28
Block Island   NOT AVBL
Westerly       LGT RAIN  39  34  82 NE15G30   29.68F WCI  31
 IN MA

CITY           SKY/WX    TMP DP  RH WIND       PRES   REMARKS
Boston         LGT RAIN  38  36  92 NE31G39   29.87F FOG     WCI  25
Worcester      LGT SNOW  31  29  92 NE18G30   29.78F FOG     WCI  19
Westfield      RAIN      33  29  85 N16       29.80F FOG     WCI  23
Provincetown   LGT RAIN  39  37  92 E28G39    29.80F FOG     WCI  28
Nantucket      LGT RAIN  43  40  89 E26G41    29.65F FOG
$$

ANZ330-335-338-340-345-350-353-355-240300-
COASTAL MARINE OBSERVATIONS


STATION/POSITION TIME  SKY/WX   TEMP    WIND        PRES    VSBY  WAVE
                                AIR SEA DIR/SP/G                  HT/PER
                 (UTC)          (F)     (DEG/KT/KT) (MB)    (MI)  (FT/S)
NY HARB ENTRANCE 0050            40 43   40/ 33/ 41  999.3         15/11
20 S FIRE ISLAND 0150            42 44   50/ 35/ 43  997.4         17/11
GREAT SOUTH BAY  NOT AVBL
23 SSW MONTAUK P 0050            43 45   60/ 35/ 43 1001.3         17/10
15 E BARNEGAT LI 0130               47                N/A          18/11
HUDSON CANYON    0050            51 51               993.6         21/12
KINGS POINT      0124            36 39              1002.4
EXECUTION ROCKS  0145            37      40/ 23/ 31   N/A
CENTRAL LI SOUND 0115            38      50/ 21/ 27   N/A           5/ 6
EASTERN LI SOUND NOT AVBL
ROBBINS REEF     0130            38      40/ 25/ 32 1002.2
$$


>>>>>>>>>>>>>>>>>>>>>>>>>>>> KEY <<<<<<<<<<<<<<<<<<<<<<<<<<<
>                                                          <
>     SKY/WX - Sky Condition/Present Weather               <
>     TMP    - Temperature in Fahrenheit                   <
>     DP     - Dew Point in Fahrenheit                     <
>     RH     - Relative Humidity in Percent                <
>     WIND   - Direction (from) and Speed in MPH           <
>     PRES   - Mean Sea Level Pressure (inches of Hg)      <
>     WCI    - Wind Chill Index                            <
>     VSB    - VISIBILITY IN MILES                         <
>     HX     - HEAT INDEX                                  <
>     TC     - TEMPERATURE IN CELSIUS                      <
>     VRB    - VARIABLE WIND DIRECTION                     <
>                                                          <
>>>>>>>>>>>>>>>>>>>>>>>>>>>> KEY <<<<<<<<<<<<<<<<<<<<<<<<<<<



USA.gov is the U.S. government's official web portal to all federal, state and local government web resources and services.